Location: Doux
(49.5045°N, 4.4321°E)
Time: 12:47:28
(UTC+00:00)

Cosmos 1455 - Pass Details

Date: 23 May 2024
Orbit: 445 x 460 km, 82.5° (Epoch: 18 June)

Event Time Altitude Azimuth Distance (km) Brightness Sun altitude
Rises 02:01:03 0° 337° (NNW) 2,460 6.1 -13.1°
Reaches altitude 10° 02:03:27 10° 321° (NW) 1,584 4.9 -12.9°
Maximum altitude 02:06:06 21° 271° (W) 1,070 3.5 -12.6°
Enters shadow 02:07:11 18° 245° (WSW) 1,170 3.5 -12.5°
